Regional Weather Roundup
Issued by NWS Charleston, SC

Current Version | Previous Version | Graphics & Text | Print | Product List | Glossary On
Versions: 1 2 3 4 5 6 7 8 9 10 11 12 13 14 15 16 17 18 19 20 21 22 23 24 25 26 27 28 29 30 31 32 33 34 35 36 37 38 39 40 41 42 43 44 45 46 47 48 49 50
000 ASUS42 KCHS 221010 RWRCHS REGIONAL WEATHER ROUNDUP NATIONAL WEATHER SERVICE CHARLESTON SC 600 AM EDT TUE JUL 22 2014 NOTE: "FAIR" INDICATES FEW OR NO CLOUDS BELOW 12,000 FEET WITH NO SIGNIFICANT WEATHER AND/OR OBSTRUCTIONS TO VISIBILITY. NOT ALL STATIONS ARE QUALITY CONTROLLED BY THE NATIONAL WEATHER SERVICE. USE DATA WITH CAUTION...ESPECIALLY DEWPOINT OBSERVATIONS. SCZ027-030-031-034>040-042>050-221100- ...SOUTH CAROLINA... CITY SKY/WX TMP DP RH WIND PRES REMARKS N CHARLESTON MOCLDY 76 73 91 CALM 30.06R WATERFRONT PRK N/A 79 N/A N/A N5 N/A FORT JOHNSON NOT AVBL MOUNT PLEASANT PTSUNNY 75 73 94 CALM 30.06S JOHNS ISLAND SUNNY 75 66 73 CALM 30.06R HAZE PINOPOLIS N/A 75 73 94 E8 30.00S MONCKS CORNER FOG 75 75 100 CALM 30.07R VSB 1 SUMMERVILLE CLOUDY 75 75 100 CALM 30.07R FOG BEAUFORT MCAS FOG 74 73 97 CALM 30.06R VSB 1/2 BEAUFORT ARPT PTSUNNY 73 73 100 CALM 30.05R FOG HILTON HEAD IS NOT AVBL GEORGETOWN NOT AVBL WALTERBORO NOT AVBL ORANGEBURG CLOUDY 74 72 93 E6 30.08R FOG BARNWELL CLOUDY 73 72 94 NE5 30.08R AIKEN HVY RAIN 72 72 100 NE5 30.13R MANNING CLOUDY 73 N/A N/A MISG 30.08R VSB 3/4 KINGSTREE NOT AVBL COLUMBIA RAIN 75 71 87 N5 30.08R FOG SUMTER FOG 73 73 100 NE6 30.08R VSB 3/4 FLORENCE FOG 73 72 96 NE5 30.09R VSB 1/4 MYRTLE BEACH N/A 73 70 88 N8 30.08R N MYRTLE BEACH FOG 73 72 96 N6 30.07S VSB 3/4 $$ GAZ063-065-086>088-099>101-113>116-118-119-134-136>141-150-221100- ...GEORGIA... CITY SKY/WX TMP DP RH WIND PRES REMARKS SAVANNAH ARPT CLOUDY 73 71 93 CALM 30.07R HUNTER AAF CLOUDY 73 73 100 NW5 30.05R FORT STEWART CLOUDY 74 72 95 N3 30.05R STATESBORO NOT AVBL SYLVANIA CLOUDY 74 74 100 CALM 30.08R FOG CLAXTON CLOUDY N/A N/A N/A CALM 30.07R HAZE THOMSON MOCLDY 73 73 100 CALM 30.13R AUGUSTA-BUSH CLOUDY 72 70 93 NE3 30.07R AUGUSTA-DANIEL MOCLDY 73 71 93 NE7 30.08S SWAINSBORO CLOUDY 73 73 100 CALM 30.08R VIDALIA N/A 72 72 100 CALM 30.08R ALMA MOCLDY 70 69 97 CALM 30.08R FOG WAYCROSS CLOUDY 76 76 98 CALM 30.07R JESUP NOT AVBL BRUNSWICK PTCLDY 72 70 94 CALM 30.06S SAINT SIMONS PTCLDY 73 72 96 CALM 30.05R $$ SCZ027-028-034-036>038-045-046-048>050-GAZ119-141-221100- ...LAKE AND SUPPLEMENTAL COASTAL OBSERVATIONS... STATION/POSITION TIME TEMP WIND PRES WAVE SWELL AIR SEA DIR/SP/G HT/PER HT/PER/DIR (UTC) (F) (DEG/KT/KT) (MB) (FT/S) (FT/S/D) UPR LAKE MARION NOT AVBL WINYAH BAY 0900 75 320/ 4 1017.0S LAKE MURRAY 0900 73 20/ 2/ 3 1017.9F ACE BASIN NERRS 0900 74 CALM 1017.0S FORT PULASKI 1000 75 310/ 5/ 6 1017.9R SAPELO ISLAND 0900 75 270/ 2 1017.0S $$ ANZ835-935-AMZ111-154-330-350-352-354-374-450-454-472-221100- ...C-MAN AND BUOY OBSERVATIONS... STATION/POSITION TIME TEMP WIND PRES WAVE SWELL AIR SEA DIR/SP/G HT/PER HT/PER/DIR (UTC) (F) (DEG/KT/KT) (MB) (FT/S) (FT/S/D) FOLLY BEACH CMAN 0900 80 190/ 4/ 5 1017.8R BUOY 41004 1000 82 82 180/ 8/ 8 1017.1R 3/ 8 2/ 8 BUOY 41008 1000 80 83 220/ 6/ 8 1017.1R 2/ 8 2/100/ 8 5E ST. MARYS GA 1000 83 N/A 2/ 8 FRYING PAN BUOY NOT AVBL BUOY 41025 1000 VRB 8/ 10 1019.7R 3/ 7 2/130/ 7 CAPE LOOKOUT NC 0900 77 360/ 5/ 5 1019.0R BUOY 41002 0945 81 82 190/ 16/ 16 1020.2R 4/ 7 2/140/ 8 BUOY 41010 1000 81 83 150/ 16/ 19 1017.0S 4/ 7 2/110/ 8 BUOY 41012 NOT AVBL ST AUGUSTINE FL 1000 76 CALM / 1 1017.8R CAPERS NEARSHORE 0900 81 140/ 6/ 6 N/A FRIPP NEARSHORE NOT AVBL $$

USA.gov is the U.S. government's official web portal to all federal, state and local government web resources and services.